Location: Harbor View
(36.2448°N, 86.5797°W)
Time: 08:31:32
(UTC+00:00)

CZ-2D R/B - Pass Details

Date: 29 October 2020
Orbit: 522 x 537 km, 97.4° (Epoch: 04 December)

Event Time Altitude Azimuth Distance (km) Brightness Sun altitude
Rises 23:39:30 0° 146° (SSE) 2,648 6.6 -10.0°
Reaches altitude 10° 23:41:45 10° 137° (SE) 1,761 5.6 -10.5°
Maximum altitude 23:45:09 32° 73° (ENE) 918 3.9 -11.1°
Drops below altitude 10° 23:48:33 10° 9° (N) 1,767 5.7 -11.8°
Sets 23:50:48 0° 360° (N) 2,659 6.7 -12.3°
